Location: Buchberg
(46.9333°N, 15.8500°E)
Time: 04:25:51
(UTC+00:00)

Cosmos 1975 Rocket - Pass Details

Date: 14 July 2020
Orbit: 605 x 633 km, 82.5° (Epoch: 11 August)

Event Time Altitude Azimuth Distance (km) Brightness Sun altitude
Rises 01:55:03 0° 356° (N) 2,908 7.3 -11.2°
Reaches altitude 10° 01:57:23 10° 4° (N) 2,002 6.5 -10.9°
Maximum altitude 02:01:36 41° 75° (ENE) 911 4.4 -10.5°
Drops below altitude 10° 02:05:48 10° 146° (SSE) 2,002 5.5 -10.0°
Sets 02:08:08 0° 154° (SSE) 2,908 6.3 -9.7°
